Location: Newark
(49.8969°N, 3.3422°E)
Time: 20:45:11
(UTC+00:00)

deb Explorer IX - Pass Details

Date: 19 January 2020
Orbit: 549 x 1099 km, 38.8° (Epoch: 22 February)

Event Time Altitude Azimuth Distance (km) Brightness Sun altitude
Rises 05:06:28 0° 264° (W) 3,692 - -23.5°
Reaches altitude 10° 05:10:35 10° 242° (WSW) 2,625 - -22.9°
Maximum altitude 05:13:42 14° 212° (SSW) 2,235 - -22.4°
Exits shadow 05:13:52 14° 210° (SSW) 2,230 ? -22.4°
Drops below altitude 10° 05:16:37 10° 181° (S) 2,422 ? -21.9°
Sets 05:20:09 0° 157° (SSE) 3,221 ? -21.4°
